Find Starlink 31920

NORAD ID: 59907 Int'l Des: 2024-100 Owner: SPXS Country: US Constellation: starlink operational
LEOCIRCULAR

Current View

Loading 3D Globe...

About Starlink 31920

Description loading...

Upcoming Passes

Passes for default location (London). Set your location on the main map for personalized predictions.

Altitude History

Loading altitude history...

Two-Line Element Set

1 59907U 24100Y 26150.92245931 .00088428 00000-0 14500-2 0 9998
2 59907 42.9936 337.1386 0022573 288.7403 71.1008 15.51174496114227
Epoch: May 30, 2026 • Age: 21 hours

Current Status

Altitude 419.8 km
Velocity 7.66 km/s
Sub-Earth Point 3.55°N, 25.72°W
Launch Date May 28, 2024
Age 2 years
Type internet

Technical Details

Classification Payload
Mass 730.00 kg
Dry Mass 700.00 kg
Total Mass 730.00 kg
Length 0.30 m
Diameter 4.10 m
Span 29.00 m
Shape Box + pan
Manufacturer SPXS
Bus Type Starlink V2M
Phase Status In Orbit
Owner/State SPXS/US

Most Searched